Year,Month,Day,Hour,Minute,Value (Times are PST for temperature in C)
2008,05,25,00,00,16.50
2008,05,25,00,01,16.50
2008,05,25,00,02,16.40
2008,05,25,00,03,16.40
2008,05,25,00,04,16.40
2008,05,25,00,05,16.40
2008,05,25,00,06,16.40
2008,05,25,00,07,16.40
2008,05,25,00,08,16.30
2008,05,25,00,09,16.30
2008,05,25,00,10,16.30
2008,05,25,00,11,16.30
2008,05,25,00,12,16.30
2008,05,25,00,13,16.30
2008,05,25,00,14,16.30
2008,05,25,00,15,16.30
2008,05,25,00,16,16.30
2008,05,25,00,17,16.30
2008,05,25,00,18,16.30
2008,05,25,00,19,16.30
2008,05,25,00,20,16.40
2008,05,25,00,21,16.40
2008,05,25,00,22,16.40
2008,05,25,00,23,16.40
2008,05,25,00,24,16.30
2008,05,25,00,25,16.30
2008,05,25,00,26,16.30
2008,05,25,00,27,16.30
2008,05,25,00,28,16.30
2008,05,25,00,29,16.30
2008,05,25,00,30,16.30
2008,05,25,00,31,16.30
2008,05,25,00,32,16.30
2008,05,25,00,33,16.30
2008,05,25,00,34,16.30
2008,05,25,00,35,16.40
2008,05,25,00,36,16.40
2008,05,25,00,37,16.50
2008,05,25,00,38,16.50
2008,05,25,00,39,16.50
2008,05,25,00,40,16.60
2008,05,25,00,41,16.60
2008,05,25,00,42,16.50
2008,05,25,00,43,16.60
2008,05,25,00,44,16.60
2008,05,25,00,45,16.60
2008,05,25,00,46,16.60
2008,05,25,00,47,16.60
2008,05,25,00,48,16.60
2008,05,25,00,49,16.60
2008,05,25,00,50,16.60
2008,05,25,00,51,16.60
2008,05,25,00,52,16.50
2008,05,25,00,53,16.50
2008,05,25,00,54,16.40
2008,05,25,00,55,16.30
2008,05,25,00,56,16.30
2008,05,25,00,57,16.20
2008,05,25,00,58,16.20
2008,05,25,00,59,16.30
2008,05,25,01,00,16.30
2008,05,25,01,01,16.30
2008,05,25,01,02,16.40
2008,05,25,01,03,16.40
2008,05,25,01,04,16.40
2008,05,25,01,05,16.40
2008,05,25,01,06,16.50
2008,05,25,01,07,16.50
2008,05,25,01,08,16.50
2008,05,25,01,09,16.50
2008,05,25,01,10,16.50
2008,05,25,01,11,16.50
2008,05,25,01,12,16.50
2008,05,25,01,13,16.40
2008,05,25,01,14,16.40
2008,05,25,01,15,16.40
2008,05,25,01,16,16.30
2008,05,25,01,17,16.30
2008,05,25,01,18,16.20
2008,05,25,01,19,16.20
2008,05,25,01,20,16.20
2008,05,25,01,21,16.10
2008,05,25,01,22,16.10
2008,05,25,01,23,16.10
2008,05,25,01,24,16.00
2008,05,25,01,25,16.00
2008,05,25,01,26,15.90
2008,05,25,01,27,15.90
2008,05,25,01,28,15.90
2008,05,25,01,29,16.00
2008,05,25,01,30,16.00
2008,05,25,01,31,16.00
2008,05,25,01,32,16.00
2008,05,25,01,33,16.00
2008,05,25,01,34,16.00
2008,05,25,01,35,16.00
2008,05,25,01,36,16.00
2008,05,25,01,37,16.00
2008,05,25,01,38,16.00
2008,05,25,01,39,16.10
2008,05,25,01,40,16.10
2008,05,25,01,41,16.20
2008,05,25,01,42,16.20
2008,05,25,01,43,16.20
2008,05,25,01,44,16.20
2008,05,25,01,45,16.20
2008,05,25,01,46,16.30
2008,05,25,01,47,16.30
2008,05,25,01,48,16.30
2008,05,25,01,49,16.30
2008,05,25,01,50,16.30
2008,05,25,01,51,16.30
2008,05,25,01,52,16.30
2008,05,25,01,53,16.30
2008,05,25,01,54,16.30
2008,05,25,01,55,16.30
2008,05,25,01,56,16.30
2008,05,25,01,57,16.30
2008,05,25,01,58,16.20
2008,05,25,01,59,16.20
2008,05,25,02,00,16.10
2008,05,25,02,01,16.10
2008,05,25,02,02,16.00
2008,05,25,02,03,15.90
2008,05,25,02,04,15.80
2008,05,25,02,05,15.70
2008,05,25,02,06,15.60
2008,05,25,02,07,15.50
2008,05,25,02,08,15.50
2008,05,25,02,09,15.40
2008,05,25,02,10,15.40
2008,05,25,02,11,15.30
2008,05,25,02,12,15.30
2008,05,25,02,13,15.30
2008,05,25,02,14,15.20
2008,05,25,02,15,15.10
2008,05,25,02,16,15.00
2008,05,25,02,17,15.00
2008,05,25,02,18,15.00
2008,05,25,02,19,15.00
2008,05,25,02,20,14.90
2008,05,25,02,21,14.80
2008,05,25,02,22,14.70
2008,05,25,02,23,14.70
2008,05,25,02,24,14.60
2008,05,25,02,25,14.60
2008,05,25,02,26,14.50
2008,05,25,02,27,14.50
2008,05,25,02,28,14.50
2008,05,25,02,29,14.40
2008,05,25,02,30,14.40
2008,05,25,02,31,14.40
2008,05,25,02,32,14.40
2008,05,25,02,33,14.40
2008,05,25,02,34,14.30
2008,05,25,02,35,14.30
2008,05,25,02,36,14.30
2008,05,25,02,37,14.30
2008,05,25,02,38,14.30
2008,05,25,02,39,14.30
2008,05,25,02,40,14.20
2008,05,25,02,41,14.20
2008,05,25,02,42,14.20
2008,05,25,02,43,14.20
2008,05,25,02,44,14.20
2008,05,25,02,45,14.20
2008,05,25,02,46,14.20
2008,05,25,02,47,14.20
2008,05,25,02,48,14.10
2008,05,25,02,49,14.10
2008,05,25,02,50,14.10
2008,05,25,02,51,14.10
2008,05,25,02,52,14.00
2008,05,25,02,53,14.00
2008,05,25,02,54,13.90
2008,05,25,02,55,13.90
2008,05,25,02,56,13.80
2008,05,25,02,57,13.80
2008,05,25,02,58,13.80
2008,05,25,02,59,13.80
2008,05,25,03,00,13.70
2008,05,25,03,01,13.70
2008,05,25,03,02,13.70
2008,05,25,03,03,13.70
2008,05,25,03,04,13.60
2008,05,25,03,05,13.60
2008,05,25,03,06,13.60
2008,05,25,03,07,13.50
2008,05,25,03,08,13.50
2008,05,25,03,09,13.50
2008,05,25,03,10,13.50
2008,05,25,03,11,13.50
2008,05,25,03,12,13.60
2008,05,25,03,13,13.60
2008,05,25,03,14,13.70
2008,05,25,03,15,13.70
2008,05,25,03,16,13.70
2008,05,25,03,17,13.70
2008,05,25,03,18,13.80
2008,05,25,03,19,13.80
2008,05,25,03,20,13.80
2008,05,25,03,21,13.80
2008,05,25,03,22,13.80
2008,05,25,03,23,13.80
2008,05,25,03,24,13.80
2008,05,25,03,25,13.80
2008,05,25,03,26,13.80
2008,05,25,03,27,13.70
2008,05,25,03,28,13.70
2008,05,25,03,29,13.70
2008,05,25,03,30,13.70
2008,05,25,03,31,13.70
2008,05,25,03,32,13.80
2008,05,25,03,33,13.80
2008,05,25,03,34,13.80
2008,05,25,03,35,13.80
2008,05,25,03,36,13.80
2008,05,25,03,37,13.80
2008,05,25,03,38,13.80
2008,05,25,03,39,13.80
2008,05,25,03,40,13.80
2008,05,25,03,41,13.80
2008,05,25,03,42,13.90
2008,05,25,03,43,13.90
2008,05,25,03,44,13.80
2008,05,25,03,45,13.80
2008,05,25,03,46,13.80
2008,05,25,03,47,13.80
2008,05,25,03,48,13.80
2008,05,25,03,49,13.80
2008,05,25,03,50,13.80
2008,05,25,03,51,13.90
2008,05,25,03,52,14.00
2008,05,25,03,53,14.10
2008,05,25,03,54,14.30
2008,05,25,03,55,14.40
2008,05,25,03,56,14.60
2008,05,25,03,57,14.70
2008,05,25,03,58,14.90
2008,05,25,03,59,15.00
2008,05,25,04,00,15.00
2008,05,25,04,01,15.00
2008,05,25,04,02,15.10
2008,05,25,04,03,15.20
2008,05,25,04,04,15.30
2008,05,25,04,05,15.30
2008,05,25,04,06,15.40
2008,05,25,04,07,15.40
2008,05,25,04,08,15.40
2008,05,25,04,09,15.50
2008,05,25,04,10,15.60
2008,05,25,04,11,15.60
2008,05,25,04,12,15.60
2008,05,25,04,13,15.70
2008,05,25,04,14,15.70
2008,05,25,04,15,15.70
2008,05,25,04,16,15.70
2008,05,25,04,17,15.70
2008,05,25,04,18,15.80
2008,05,25,04,19,15.70
2008,05,25,04,20,15.70
2008,05,25,04,21,15.70
2008,05,25,04,22,15.70
2008,05,25,04,23,15.70
2008,05,25,04,24,15.70
2008,05,25,04,25,15.70
2008,05,25,04,26,15.70
2008,05,25,04,27,15.70
2008,05,25,04,28,15.70
2008,05,25,04,29,15.60
2008,05,25,04,30,15.60
2008,05,25,04,31,15.70
2008,05,25,04,32,15.70
2008,05,25,04,33,15.70
2008,05,25,04,34,15.70
2008,05,25,04,35,15.60
2008,05,25,04,36,15.60
2008,05,25,04,37,15.60
2008,05,25,04,38,15.60
2008,05,25,04,39,15.60
2008,05,25,04,40,15.60
2008,05,25,04,41,15.50
2008,05,25,04,42,15.50
2008,05,25,04,43,15.50
2008,05,25,04,44,15.50
2008,05,25,04,45,15.60
2008,05,25,04,46,15.60
2008,05,25,04,47,15.50
2008,05,25,04,48,15.50
2008,05,25,04,49,15.50
2008,05,25,04,50,15.60
2008,05,25,04,51,15.60
2008,05,25,04,52,15.60
2008,05,25,04,53,15.70
2008,05,25,04,54,15.70
2008,05,25,04,55,15.80
2008,05,25,04,56,15.80
2008,05,25,04,57,15.80
2008,05,25,04,58,15.80
2008,05,25,04,59,15.80
2008,05,25,05,00,15.80
2008,05,25,05,01,15.80
2008,05,25,05,02,15.80
2008,05,25,05,03,15.80
2008,05,25,05,04,15.80
2008,05,25,05,05,15.80
2008,05,25,05,06,15.80
2008,05,25,05,07,15.80
2008,05,25,05,08,15.80
2008,05,25,05,09,15.70
2008,05,25,05,10,15.60
2008,05,25,05,11,15.50
2008,05,25,05,12,15.40
2008,05,25,05,13,15.30
2008,05,25,05,14,15.20
2008,05,25,05,15,15.10
2008,05,25,05,16,15.00
2008,05,25,05,17,15.00
2008,05,25,05,18,15.00
2008,05,25,05,19,15.00
2008,05,25,05,20,15.00
2008,05,25,05,21,15.00
2008,05,25,05,22,15.00
2008,05,25,05,23,15.00
2008,05,25,05,24,15.00
2008,05,25,05,25,15.00
2008,05,25,05,26,15.00
2008,05,25,05,27,15.00
2008,05,25,05,28,15.00
2008,05,25,05,29,15.00
2008,05,25,05,30,15.00
2008,05,25,05,31,15.00
2008,05,25,05,32,15.00
2008,05,25,05,33,15.00
2008,05,25,05,34,15.00
2008,05,25,05,35,15.00
2008,05,25,05,36,15.00
2008,05,25,05,37,15.00
2008,05,25,05,38,15.00
2008,05,25,05,39,15.00
2008,05,25,05,40,15.00
2008,05,25,05,41,14.90
2008,05,25,05,42,14.70
2008,05,25,05,43,14.60
2008,05,25,05,44,14.50
2008,05,25,05,45,14.30
2008,05,25,05,46,14.20
2008,05,25,05,47,14.20
2008,05,25,05,48,14.10
2008,05,25,05,49,14.00
2008,05,25,05,50,14.00
2008,05,25,05,51,13.90
2008,05,25,05,52,13.90
2008,05,25,05,53,13.90
2008,05,25,05,54,13.90
2008,05,25,05,55,13.90
2008,05,25,05,56,13.90
2008,05,25,05,57,13.90
2008,05,25,05,58,13.90
2008,05,25,05,59,13.90
2008,05,25,06,00,14.00
2008,05,25,06,01,14.00
2008,05,25,06,02,14.10
2008,05,25,06,03,14.10
2008,05,25,06,04,14.10
2008,05,25,06,05,14.10
2008,05,25,06,06,14.10
2008,05,25,06,07,14.10
2008,05,25,06,08,14.10
2008,05,25,06,09,14.00
2008,05,25,06,10,14.00
2008,05,25,06,11,14.00
2008,05,25,06,12,14.00
2008,05,25,06,13,13.90
2008,05,25,06,14,13.90
2008,05,25,06,15,13.90
2008,05,25,06,16,13.90
2008,05,25,06,17,13.90
2008,05,25,06,18,13.90
2008,05,25,06,19,13.90
2008,05,25,06,20,13.80
2008,05,25,06,21,13.80
2008,05,25,06,22,13.80
2008,05,25,06,23,13.80
2008,05,25,06,24,13.80
2008,05,25,06,25,13.80
2008,05,25,06,26,13.80
2008,05,25,06,27,13.80
2008,05,25,06,28,13.80
2008,05,25,06,29,13.80
2008,05,25,06,30,13.80
2008,05,25,06,31,13.90
2008,05,25,06,32,13.90
2008,05,25,06,33,13.90
2008,05,25,06,34,13.90
2008,05,25,06,35,13.90
2008,05,25,06,36,13.90
2008,05,25,06,37,13.90
2008,05,25,06,38,13.90
2008,05,25,06,39,13.90
2008,05,25,06,40,13.90
2008,05,25,06,41,14.00
2008,05,25,06,42,14.00
2008,05,25,06,43,14.00
2008,05,25,06,44,14.00
2008,05,25,06,45,14.00
2008,05,25,06,46,14.00
2008,05,25,06,47,13.90
2008,05,25,06,48,13.90
2008,05,25,06,49,13.90
2008,05,25,06,50,13.90
2008,05,25,06,51,13.90
2008,05,25,06,52,14.00
2008,05,25,06,53,14.00
2008,05,25,06,54,14.00
2008,05,25,06,55,14.00
2008,05,25,06,56,14.00
2008,05,25,06,57,14.00
2008,05,25,06,58,14.00
2008,05,25,06,59,14.00
2008,05,25,07,00,14.00
2008,05,25,07,01,14.00
2008,05,25,07,02,14.00
2008,05,25,07,03,14.10
2008,05,25,07,04,14.10
2008,05,25,07,05,14.10
2008,05,25,07,06,14.10
2008,05,25,07,07,14.20
2008,05,25,07,08,14.20
2008,05,25,07,09,14.20
2008,05,25,07,10,14.30
2008,05,25,07,11,14.30
2008,05,25,07,12,14.30
2008,05,25,07,13,14.30
2008,05,25,07,14,14.40
2008,05,25,07,15,14.40
2008,05,25,07,16,14.50
2008,05,25,07,17,14.50
2008,05,25,07,18,14.60
2008,05,25,07,19,14.60
2008,05,25,07,20,14.70
2008,05,25,07,21,14.70
2008,05,25,07,22,14.70
2008,05,25,07,23,14.80
2008,05,25,07,24,14.80
2008,05,25,07,25,14.80
2008,05,25,07,26,14.80
2008,05,25,07,27,14.80
2008,05,25,07,28,14.90
2008,05,25,07,29,14.90
2008,05,25,07,30,14.90
2008,05,25,07,31,15.00
2008,05,25,07,32,15.00
2008,05,25,07,33,15.00
2008,05,25,07,34,15.00
2008,05,25,07,35,15.00
2008,05,25,07,36,15.00
2008,05,25,07,37,15.00
2008,05,25,07,38,15.00
2008,05,25,07,39,15.00
2008,05,25,07,40,15.00
2008,05,25,07,41,15.00
2008,05,25,07,42,15.00
2008,05,25,07,43,15.00
2008,05,25,07,44,15.00
2008,05,25,07,45,15.00
2008,05,25,07,46,15.00
2008,05,25,07,47,15.00
2008,05,25,07,48,15.00
2008,05,25,07,49,15.00
2008,05,25,07,50,15.00
2008,05,25,07,51,15.00
2008,05,25,07,52,15.00
2008,05,25,07,53,15.10
2008,05,25,07,54,15.10
2008,05,25,07,55,15.20
2008,05,25,07,56,15.20
2008,05,25,07,57,15.30
2008,05,25,07,58,15.30
2008,05,25,07,59,15.30
2008,05,25,08,00,15.40
2008,05,25,08,01,15.40
2008,05,25,08,02,15.50
2008,05,25,08,03,15.50
2008,05,25,08,04,15.60
2008,05,25,08,05,15.60
2008,05,25,08,06,15.60
2008,05,25,08,07,15.60
2008,05,25,08,08,15.60
2008,05,25,08,09,15.60
2008,05,25,08,10,15.60
2008,05,25,08,11,15.60
2008,05,25,08,12,15.50
2008,05,25,08,13,15.50
2008,05,25,08,14,15.60
2008,05,25,08,15,15.60
2008,05,25,08,16,15.60
2008,05,25,08,17,15.60
2008,05,25,08,18,15.60
2008,05,25,08,19,15.50
2008,05,25,08,20,15.50
2008,05,25,08,21,15.50
2008,05,25,08,22,15.50
2008,05,25,08,23,15.50
2008,05,25,08,24,15.50
2008,05,25,08,25,15.50
2008,05,25,08,26,15.50
2008,05,25,08,27,15.50
2008,05,25,08,28,15.60
2008,05,25,08,29,15.60
2008,05,25,08,30,15.60
2008,05,25,08,31,15.60
2008,05,25,08,32,15.60
2008,05,25,08,33,15.60
2008,05,25,08,34,15.70
2008,05,25,08,35,15.70
2008,05,25,08,36,15.80
2008,05,25,08,37,15.80
2008,05,25,08,38,15.80
2008,05,25,08,39,15.70
2008,05,25,08,40,15.70
2008,05,25,08,41,15.60
2008,05,25,08,42,15.50
2008,05,25,08,43,15.40
2008,05,25,08,44,15.40
2008,05,25,08,45,15.40
2008,05,25,08,46,15.40
2008,05,25,08,47,15.40
2008,05,25,08,48,15.40
2008,05,25,08,49,15.40
2008,05,25,08,50,15.50
2008,05,25,08,51,15.50
2008,05,25,08,52,15.60
2008,05,25,08,53,15.60
2008,05,25,08,54,15.60
2008,05,25,08,55,15.50
2008,05,25,08,56,15.50
2008,05,25,08,57,15.40
2008,05,25,08,58,15.40
2008,05,25,08,59,15.30
2008,05,25,09,00,15.20
2008,05,25,09,01,15.20
2008,05,25,09,02,15.10
2008,05,25,09,03,15.10
2008,05,25,09,04,15.00
2008,05,25,09,05,15.00
2008,05,25,09,06,15.00
2008,05,25,09,07,15.00
2008,05,25,09,08,15.00
2008,05,25,09,09,15.00
2008,05,25,09,10,15.00
2008,05,25,09,11,15.00
2008,05,25,09,12,15.00
2008,05,25,09,13,15.00
2008,05,25,09,14,15.00
2008,05,25,09,15,15.00
2008,05,25,09,16,15.00
2008,05,25,09,17,15.00
2008,05,25,09,18,15.00
2008,05,25,09,19,15.00
2008,05,25,09,20,15.00
2008,05,25,09,21,15.00
2008,05,25,09,22,15.00
2008,05,25,09,23,15.00
2008,05,25,09,24,15.00
2008,05,25,09,25,15.00
2008,05,25,09,26,15.00
2008,05,25,09,27,15.00
2008,05,25,09,28,15.00
2008,05,25,09,29,15.00
2008,05,25,09,30,15.00
2008,05,25,09,31,15.00
2008,05,25,09,32,15.00
2008,05,25,09,33,15.00
2008,05,25,09,34,15.00
2008,05,25,09,35,15.00
2008,05,25,09,36,15.00
2008,05,25,09,37,15.00
2008,05,25,09,38,15.00
2008,05,25,09,39,15.00
2008,05,25,09,40,15.00
2008,05,25,09,41,15.00
2008,05,25,09,42,15.00
2008,05,25,09,43,15.00
2008,05,25,09,44,15.00
2008,05,25,09,45,15.00
2008,05,25,09,46,15.10
2008,05,25,09,47,15.20
2008,05,25,09,48,15.30
2008,05,25,09,49,15.30
2008,05,25,09,50,15.30
2008,05,25,09,51,15.30
2008,05,25,09,52,15.30
2008,05,25,09,53,15.30
2008,05,25,09,54,15.30
2008,05,25,09,55,15.30
2008,05,25,09,56,15.30
2008,05,25,09,57,15.30
2008,05,25,09,58,15.30
2008,05,25,09,59,15.30
2008,05,25,10,00,15.30
2008,05,25,10,01,15.30
2008,05,25,10,02,15.30
2008,05,25,10,03,15.30
2008,05,25,10,04,15.40
2008,05,25,10,05,15.40
2008,05,25,10,06,15.50
2008,05,25,10,07,15.50
2008,05,25,10,08,15.60
2008,05,25,10,09,15.60
2008,05,25,10,10,15.60
2008,05,25,10,11,15.60
2008,05,25,10,12,15.60
2008,05,25,10,13,15.60
2008,05,25,10,14,15.60
2008,05,25,10,15,15.70
2008,05,25,10,16,15.70
2008,05,25,10,17,15.80
2008,05,25,10,18,15.80
2008,05,25,10,19,15.80
2008,05,25,10,20,15.90
2008,05,25,10,21,16.00
2008,05,25,10,22,16.10
2008,05,25,10,23,16.10
2008,05,25,10,24,16.20
2008,05,25,10,25,16.20
2008,05,25,10,26,16.30
2008,05,25,10,27,16.30
2008,05,25,10,28,16.30
2008,05,25,10,29,16.40
2008,05,25,10,30,16.50
2008,05,25,10,31,16.60
2008,05,25,10,32,16.70
2008,05,25,10,33,16.80
2008,05,25,10,34,16.80
2008,05,25,10,35,16.80
2008,05,25,10,36,16.50
2008,05,25,10,37,16.10
2008,05,25,10,38,15.60
2008,05,25,10,39,15.10
2008,05,25,10,40,14.80
2008,05,25,10,41,14.40
2008,05,25,10,42,14.20
2008,05,25,10,43,14.00
2008,05,25,10,44,13.80
2008,05,25,10,45,13.60
2008,05,25,10,46,13.50
2008,05,25,10,47,13.50
2008,05,25,10,48,13.40
2008,05,25,10,49,13.50
2008,05,25,10,50,13.50
2008,05,25,10,51,13.50
2008,05,25,10,52,13.60
2008,05,25,10,53,13.60
2008,05,25,10,54,13.70
2008,05,25,10,55,13.80
2008,05,25,10,56,13.90
2008,05,25,10,57,14.00
2008,05,25,10,58,14.10
2008,05,25,10,59,14.10
2008,05,25,11,00,14.20
2008,05,25,11,01,14.20
2008,05,25,11,02,14.30
2008,05,25,11,03,14.40
2008,05,25,11,04,14.50
2008,05,25,11,05,14.60
2008,05,25,11,06,14.70
2008,05,25,11,07,14.80
2008,05,25,11,08,15.00
2008,05,25,11,09,15.00
2008,05,25,11,10,15.20
2008,05,25,11,11,15.20
2008,05,25,11,12,15.20
2008,05,25,11,13,15.30
2008,05,25,11,14,15.30
2008,05,25,11,15,15.40
2008,05,25,11,16,15.50
2008,05,25,11,17,15.60
2008,05,25,11,18,15.70
2008,05,25,11,19,15.80
2008,05,25,11,20,16.00
2008,05,25,11,21,16.20
2008,05,25,11,22,16.30
2008,05,25,11,23,16.50
2008,05,25,11,24,16.60
2008,05,25,11,25,16.70
2008,05,25,11,26,16.70
2008,05,25,11,27,16.70
2008,05,25,11,28,16.70
2008,05,25,11,29,16.70
2008,05,25,11,30,16.80
2008,05,25,11,31,16.80
2008,05,25,11,32,17.00
2008,05,25,11,33,17.00
2008,05,25,11,34,17.10
2008,05,25,11,35,17.20
2008,05,25,11,36,17.30
2008,05,25,11,37,17.30
2008,05,25,11,38,17.40
2008,05,25,11,39,17.50
2008,05,25,11,40,17.50
2008,05,25,11,41,17.50
2008,05,25,11,42,17.50
2008,05,25,11,43,17.50
2008,05,25,11,44,17.50
2008,05,25,11,45,17.50
2008,05,25,11,46,17.40
2008,05,25,11,47,17.40
2008,05,25,11,48,17.40
2008,05,25,11,49,17.50
2008,05,25,11,50,17.60
2008,05,25,11,51,17.70
2008,05,25,11,52,17.70
2008,05,25,11,53,17.80
2008,05,25,11,54,17.90
2008,05,25,11,55,18.10
2008,05,25,11,56,18.20
2008,05,25,11,57,18.30
2008,05,25,11,58,18.40
2008,05,25,11,59,18.40
2008,05,25,12,00,18.50
2008,05,25,12,01,18.50
2008,05,25,12,02,18.50
2008,05,25,12,03,18.50
2008,05,25,12,04,18.40
2008,05,25,12,05,18.40
2008,05,25,12,06,18.40
2008,05,25,12,07,18.40
2008,05,25,12,08,18.40
2008,05,25,12,09,18.40
2008,05,25,12,10,18.30
2008,05,25,12,11,18.30
2008,05,25,12,12,18.30
2008,05,25,12,13,18.30
2008,05,25,12,14,18.30
2008,05,25,12,15,18.30
2008,05,25,12,16,18.20
2008,05,25,12,17,18.20
2008,05,25,12,18,18.20
2008,05,25,12,19,18.20
2008,05,25,12,20,18.20
2008,05,25,12,21,18.20
2008,05,25,12,22,18.20
2008,05,25,12,23,18.10
2008,05,25,12,24,18.10
2008,05,25,12,25,18.00
2008,05,25,12,26,18.00
2008,05,25,12,27,18.00
2008,05,25,12,28,17.90
2008,05,25,12,29,17.90
2008,05,25,12,30,17.80
2008,05,25,12,31,17.70
2008,05,25,12,32,17.60
2008,05,25,12,33,17.50
2008,05,25,12,34,17.40
2008,05,25,12,35,17.40
2008,05,25,12,36,17.50
2008,05,25,12,37,17.50
2008,05,25,12,38,17.40
2008,05,25,12,39,17.30
2008,05,25,12,40,17.30
2008,05,25,12,41,17.20
2008,05,25,12,42,17.30
2008,05,25,12,43,17.40
2008,05,25,12,44,17.50
2008,05,25,12,45,17.60
2008,05,25,12,46,17.60
2008,05,25,12,47,17.60
2008,05,25,12,48,17.60
2008,05,25,12,49,17.60
2008,05,25,12,50,17.60
2008,05,25,12,51,17.60
2008,05,25,12,52,17.60
2008,05,25,12,53,17.70
2008,05,25,12,54,17.70
2008,05,25,12,55,17.70
2008,05,25,12,56,17.90
2008,05,25,12,57,17.90
2008,05,25,12,58,17.90
2008,05,25,12,59,17.80
2008,05,25,13,00,17.70
2008,05,25,13,01,17.60
2008,05,25,13,02,17.60
2008,05,25,13,03,17.60
2008,05,25,13,04,17.60
2008,05,25,13,05,17.60
2008,05,25,13,06,17.50
2008,05,25,13,07,17.40
2008,05,25,13,08,17.30
2008,05,25,13,09,17.20
2008,05,25,13,10,17.10
2008,05,25,13,11,17.00
2008,05,25,13,12,16.90
2008,05,25,13,13,16.80
2008,05,25,13,14,16.90
2008,05,25,13,15,16.90
2008,05,25,13,16,17.00
2008,05,25,13,17,17.10
2008,05,25,13,18,17.20
2008,05,25,13,19,17.30
2008,05,25,13,20,17.40
2008,05,25,13,21,17.40
2008,05,25,13,22,17.50
2008,05,25,13,23,17.60
2008,05,25,13,24,17.70
2008,05,25,13,25,17.80
2008,05,25,13,26,17.90
2008,05,25,13,27,18.00
2008,05,25,13,28,17.90
2008,05,25,13,29,17.80
2008,05,25,13,30,17.70
2008,05,25,13,31,17.70
2008,05,25,13,32,17.80
2008,05,25,13,33,17.80
2008,05,25,13,34,17.80
2008,05,25,13,35,17.90
2008,05,25,13,36,17.80
2008,05,25,13,37,17.70
2008,05,25,13,38,17.70
2008,05,25,13,39,17.70
2008,05,25,13,40,17.70
2008,05,25,13,41,17.60
2008,05,25,13,42,17.60
2008,05,25,13,43,17.70
2008,05,25,13,44,17.70
2008,05,25,13,45,17.70
2008,05,25,13,46,17.60
2008,05,25,13,47,17.60
2008,05,25,13,48,17.60
2008,05,25,13,49,17.70
2008,05,25,13,50,17.70
2008,05,25,13,51,17.80
2008,05,25,13,52,17.80
2008,05,25,13,53,17.80
2008,05,25,13,54,17.80
2008,05,25,13,55,17.90
2008,05,25,13,56,17.80
2008,05,25,13,57,17.80
2008,05,25,13,58,17.90
2008,05,25,13,59,18.00
2008,05,25,14,00,18.10
2008,05,25,14,01,18.20
2008,05,25,14,02,18.20
2008,05,25,14,03,18.30
2008,05,25,14,04,18.40
2008,05,25,14,05,18.40
2008,05,25,14,06,18.50
2008,05,25,14,07,18.60
2008,05,25,14,08,18.60
2008,05,25,14,09,18.60
2008,05,25,14,10,18.60
2008,05,25,14,11,18.60
2008,05,25,14,12,18.60
2008,05,25,14,13,18.60
2008,05,25,14,14,18.70
2008,05,25,14,15,18.70
2008,05,25,14,16,18.70
2008,05,25,14,17,18.80
2008,05,25,14,18,18.80
2008,05,25,14,19,18.80
2008,05,25,14,20,18.80
2008,05,25,14,21,18.90
2008,05,25,14,22,19.00
2008,05,25,14,23,19.10
2008,05,25,14,24,19.20
2008,05,25,14,25,19.40
2008,05,25,14,26,19.50
2008,05,25,14,27,19.60
2008,05,25,14,28,19.60
2008,05,25,14,29,19.60
2008,05,25,14,30,19.60
2008,05,25,14,31,19.60
2008,05,25,14,32,19.60
2008,05,25,14,33,19.70
2008,05,25,14,34,19.50
2008,05,25,14,35,19.40
2008,05,25,14,36,19.30
2008,05,25,14,37,19.30
2008,05,25,14,38,19.30
2008,05,25,14,39,19.30
2008,05,25,14,40,19.20
2008,05,25,14,41,19.20
2008,05,25,14,42,19.10
2008,05,25,14,43,19.10
2008,05,25,14,44,19.10
2008,05,25,14,45,19.20
2008,05,25,14,46,19.20
2008,05,25,14,47,19.20
2008,05,25,14,48,19.40
2008,05,25,14,49,19.50
2008,05,25,14,50,19.50
2008,05,25,14,51,19.50
2008,05,25,14,52,19.70
2008,05,25,14,53,19.70
2008,05,25,14,54,19.80
2008,05,25,14,55,19.80
2008,05,25,14,56,19.70
2008,05,25,14,57,19.70
2008,05,25,14,58,19.80
2008,05,25,14,59,19.90
2008,05,25,15,00,19.80
2008,05,25,15,01,19.80
2008,05,25,15,02,19.70
2008,05,25,15,03,19.70
2008,05,25,15,04,19.80
2008,05,25,15,05,19.70
2008,05,25,15,06,19.70
2008,05,25,15,07,19.70
2008,05,25,15,08,19.80
2008,05,25,15,09,19.70
2008,05,25,15,10,19.60
2008,05,25,15,11,19.60
2008,05,25,15,12,19.50
2008,05,25,15,13,19.50
2008,05,25,15,14,19.40
2008,05,25,15,15,19.30
2008,05,25,15,16,19.30
2008,05,25,15,17,19.30
2008,05,25,15,18,19.30
2008,05,25,15,19,19.30
2008,05,25,15,20,19.30
2008,05,25,15,21,19.30
2008,05,25,15,22,19.30
2008,05,25,15,23,19.30
2008,05,25,15,24,19.40
2008,05,25,15,25,19.50
2008,05,25,15,26,19.50
2008,05,25,15,27,19.70
2008,05,25,15,28,19.80
2008,05,25,15,29,19.80
2008,05,25,15,30,19.80
2008,05,25,15,31,19.90
2008,05,25,15,32,20.00
2008,05,25,15,33,20.00
2008,05,25,15,34,19.90
2008,05,25,15,35,19.90
2008,05,25,15,36,19.80
2008,05,25,15,37,19.80
2008,05,25,15,38,19.80
2008,05,25,15,39,19.70
2008,05,25,15,40,19.70
2008,05,25,15,41,19.70
2008,05,25,15,42,19.70
2008,05,25,15,43,19.60
2008,05,25,15,44,19.60
2008,05,25,15,45,19.60
2008,05,25,15,46,19.70
2008,05,25,15,47,19.70
2008,05,25,15,48,19.70
2008,05,25,15,49,19.80
2008,05,25,15,50,19.80
2008,05,25,15,51,19.90
2008,05,25,15,52,19.90
2008,05,25,15,53,19.90
2008,05,25,15,54,20.00
2008,05,25,15,55,20.20
2008,05,25,15,56,20.20
2008,05,25,15,57,20.10
2008,05,25,15,58,20.10
2008,05,25,15,59,20.00
2008,05,25,16,00,20.00
2008,05,25,16,01,20.00
2008,05,25,16,02,20.00
2008,05,25,16,03,20.00
2008,05,25,16,04,20.10
2008,05,25,16,05,20.20
2008,05,25,16,06,20.30
2008,05,25,16,07,20.40
2008,05,25,16,08,20.30
2008,05,25,16,09,20.20
2008,05,25,16,10,20.10
2008,05,25,16,11,20.10
2008,05,25,16,12,20.20
2008,05,25,16,13,20.20
2008,05,25,16,14,20.20
2008,05,25,16,15,20.20
2008,05,25,16,16,20.20
2008,05,25,16,17,20.20
2008,05,25,16,18,20.20
2008,05,25,16,19,20.10
2008,05,25,16,20,20.10
2008,05,25,16,21,20.10
2008,05,25,16,22,20.20
2008,05,25,16,23,20.30
2008,05,25,16,24,20.30
2008,05,25,16,25,20.40
2008,05,25,16,26,20.40
2008,05,25,16,27,20.50
2008,05,25,16,28,20.50
2008,05,25,16,29,20.50
2008,05,25,16,30,20.50
2008,05,25,16,31,20.40
2008,05,25,16,32,20.40
2008,05,25,16,33,20.40
2008,05,25,16,34,20.30
2008,05,25,16,35,20.30
2008,05,25,16,36,20.30
2008,05,25,16,37,20.30
2008,05,25,16,38,20.20
2008,05,25,16,39,20.20
2008,05,25,16,40,20.10
2008,05,25,16,41,20.10
2008,05,25,16,42,20.10
2008,05,25,16,43,20.10
2008,05,25,16,44,20.10
2008,05,25,16,45,20.00
2008,05,25,16,46,20.00
2008,05,25,16,47,20.00
2008,05,25,16,48,20.00
2008,05,25,16,49,20.00
2008,05,25,16,50,19.90
2008,05,25,16,51,19.90
2008,05,25,16,52,19.80
2008,05,25,16,53,19.70
2008,05,25,16,54,19.70
2008,05,25,16,55,19.60
2008,05,25,16,56,19.50
2008,05,25,16,57,19.40
2008,05,25,16,58,19.30
2008,05,25,16,59,19.20
2008,05,25,17,00,19.10
2008,05,25,17,01,19.10
2008,05,25,17,02,19.00
2008,05,25,17,03,19.00
2008,05,25,17,04,18.90
2008,05,25,17,05,18.90
2008,05,25,17,06,18.90
2008,05,25,17,07,18.90
2008,05,25,17,08,18.90
2008,05,25,17,09,18.80
2008,05,25,17,10,18.80
2008,05,25,17,11,18.80
2008,05,25,17,12,18.80
2008,05,25,17,13,18.80
2008,05,25,17,14,18.90
2008,05,25,17,15,18.90
2008,05,25,17,16,18.90
2008,05,25,17,17,19.00
2008,05,25,17,18,19.00
2008,05,25,17,19,19.10